User: anonymous   Login
Location: Oronoko Observatory
(41.9167°N, 86.3833°W)
Time: 23:03:05
(UTC-05:00)
Language:

PAYLOAD A - Orbit

View from above orbital plane
View from above orbital plane
View from above satellite
View from above satellite

Ground track
Ground track

The orbit data is extracted from the following two-line orbital elements,

1 27840U 03031A   17327.54807257 -.00000011  00000-0  99714-5 0  9994
2 27840  98.2159 318.2746 0098250 359.4693   0.6376 14.38892986756234
Epoch (UTC): 23 November 2017 13:09:13
Eccentricity: 0.0098250
inclination: 98.2159°
perigee height: 692 km
apogee height: 832 km
right ascension of ascending node: 318.2746°
argument of perigee: 359.4693°
revolutions per day: 14.38892986
mean anomaly at epoch: 0.6376°
orbit number at epoch: 75623

The dashed part of the orbit path shows where the satellite is in the earth's shadow,  

DLR